Location: High Cliff State Park
(44.1557°N, 88.2948°W)
Time: 18:29:18
(UTC-06:00)

Amateur Radio Satellites - All Passes

Search period start: 10 December 2017 17:59
Search period end: 11 December 2017 17:59
Location: High Cliff State Park, 44.1557°N, 88.2948°W

Satellite Date Start Highest point End Downlink Frequencies (MHz)
Time Altitude Azimuth
PCSat 10 Dec 18:08:22 18:11:14 15° 103° (ESE) 18:14:05 145.827
XW-2B 10 Dec 18:11:56 18:14:27 17° 268° (W) 18:17:00 145.730 - 145.750
ZACube-1 10 Dec 18:12:07 18:15:06 20° 66° (ENE) 18:18:06 437.345
ISS 10 Dec 18:14:15 18:17:26 44° 24° (NNE) 18:20:36 437.550
KAITUO 1B 10 Dec 18:16:22 18:19:09 20° 267° (W) 18:21:58 145.475/437.950
STRAND 1 10 Dec 18:20:09 18:23:38 18° 91° (E) 18:27:05 437.568
NUDT-PHONESAT 10 Dec 18:21:15 18:23:50 18° 267° (W) 18:26:27 437.300
XW-2F 10 Dec 18:29:31 18:30:54 12° 270° (W) 18:32:16 145.980 - 146.000
XW-2A 10 Dec 18:33:39 18:36:52 47° 73° (ENE) 18:40:07 145.665 - 145.685
Oscar 11 10 Dec 18:39:26 18:42:51 24° 66° (ENE) 18:46:18 .
STARS 10 Dec 18:44:32 18:48:27 33° 292° (WNW) 18:52:20 437.465
AO-73 10 Dec 18:47:57 18:51:49 40° 71° (ENE) 18:55:42 145.935
SEEDS 10 Dec 18:48:04 18:52:09 48° 261° (W) 18:56:17 437.485
RS-15 10 Dec 18:50:25 19:00:52 31° 343° (NNW) 19:11:06 29.354- 29.394
O/OREOS (USA 219) 10 Dec 18:51:53 18:56:25 85° 248° (WSW) 19:00:54 437.305
CUTE-I 10 Dec 18:54:05 18:57:02 15° 271° (W) 19:00:00 437.470
CUBEBUG 2 10 Dec 19:02:26 19:06:21 35° 263° (W) 19:10:13 437.445
CUTE 1.7 + AOD 2 10 Dec 19:02:56 19:06:13 22° 267° (W) 19:09:33 437.475
UWE-3 10 Dec 19:11:36 19:15:39 49° 261° (W) 19:19:42 435.000/436.395/437.385
AAUSAT CUBESAT 2 10 Dec 19:21:13 19:25:15 48° 261° (W) 19:29:19 437.432
HO-68 10 Dec 19:21:54 19:27:50 27° 267° (W) 19:33:48 435.675
nSIGHT-1 10 Dec 19:25:36 19:28:38 38° 219° (SW) 19:31:38 .
DELFI C3 10 Dec 19:32:36 19:35:14 17° 65° (ENE) 19:37:53 145.870
FO-29 10 Dec 19:33:16 19:39:35 32° 92° (E) 19:45:14 435.910
EO-88 10 Dec 19:46:57 19:47:39 10° 62° (ENE) 19:48:21 145.990 - 145.960
ZACube-1 10 Dec 19:47:17 19:51:08 38° 262° (W) 19:55:01 437.345
PCSat 10 Dec 19:48:27 19:53:52 83° 300° (WNW) 19:59:20 145.827
ISS 10 Dec 19:50:54 19:53:49 30° 221° (SW) 19:56:44 437.550
STRAND 1 10 Dec 19:58:10 20:03:11 58° 289° (WNW) 20:08:10 437.568
Oscar 11 10 Dec 20:14:54 20:18:49 34° 264° (W) 20:22:46 .
BEESAT 3 10 Dec 20:18:19 20:21:25 22° 113° (ESE) 20:24:33 437.485
AO-73 10 Dec 20:25:26 20:28:14 18° 268° (W) 20:31:03 145.935
TIGRISAT 10 Dec 20:29:18 20:30:07 10° 89° (E) 20:30:55 435.000
UNISAT 6 10 Dec 20:30:25 20:32:12 12° 90° (E) 20:33:59 437.425
Max Valier Satellite 10 Dec 20:38:23 20:41:58 61° 75° (ENE) 20:45:36 145.860
BEESAT 2 10 Dec 20:48:32 20:50:25 13° 109° (ESE) 20:52:19 435.950
DELFI C3 10 Dec 21:05:51 21:09:39 42° 262° (W) 21:13:28 145.870
RS-15 10 Dec 21:07:54 21:18:16 31° 18° (NNE) 21:28:12 29.354- 29.394
EO-88 10 Dec 21:17:09 21:20:45 62° 259° (W) 21:24:23 145.990 - 145.960
FO-29 10 Dec 21:17:57 21:24:54 50° 293° (WNW) 21:31:04 435.910
PCSat 10 Dec 21:34:28 21:38:07 18° 322° (NW) 21:41:47 145.827
ESTCUBE 1 10 Dec 21:40:26 21:44:13 27° 67° (ENE) 21:48:03 437.505/2401.250
BEESAT 3 10 Dec 21:55:00 21:58:44 38° 311° (NW) 22:02:31 437.485
LO-87 10 Dec 22:02:14 22:05:42 53° 75° (ENE) 22:09:10 145.935 - 145.965
TIGRISAT 10 Dec 22:03:00 22:07:17 75° 285° (WNW) 22:11:39 435.000
UNISAT 6 10 Dec 22:05:03 22:09:19 65° 286° (WNW) 22:13:39 437.425
BEESAT 2 10 Dec 22:23:37 22:27:36 65° 307° (NW) 22:31:40 435.950
PRISM 10 Dec 22:30:49 22:34:57 71° 101° (ESE) 22:39:01 437.425
AIST 2D 10 Dec 22:48:01 22:51:24 40° 98° (E) 22:54:45 435.315
QB50P2 10 Dec 22:49:54 22:52:32 16° 92° (E) 22:55:08 145.880/145.840
SO-50 10 Dec 23:00:43 23:03:14 14° 32° (NNE) 23:05:47 436.795
DUCHIFAT 1 10 Dec 23:02:31 23:04:55 15° 91° (E) 23:07:20 145.980
AO-85 10 Dec 23:04:05 23:08:00 90° 102° (ESE) 23:12:09 145.980
FO-29 10 Dec 23:06:25 23:08:03 11° 315° (NW) 23:09:40 435.910
SPROUT 10 Dec 23:11:55 23:16:05 58° 73° (ENE) 23:20:16 437.525
ESTCUBE 1 10 Dec 23:16:53 23:20:55 32° 264° (W) 23:24:58 437.505/2401.250
RS-15 10 Dec 23:21:38 23:33:34 67° 49° (NE) 23:44:46 29.354- 29.394
NANOSAT C BR1 10 Dec 23:25:20 23:29:02 30° 96° (E) 23:32:44 145.865
VELOX 1 10 Dec 23:32:54 23:37:18 62° 73° (ENE) 23:41:43 145.980
EO-79 10 Dec 23:37:22 23:41:26 46° 99° (E) 23:45:29 145.935-145.965
POLYITAN 1 10 Dec 23:59:01 00:03:15 81° 101° (ESE) 00:07:29 437.675
BUGSAT 1 11 Dec 00:00:36 00:02:54 15° 92° (E) 00:05:12 437.445
BEESAT 2 11 Dec 00:04:40 00:06:08 12° 327° (NNW) 00:07:35 435.950
PRISM 11 Dec 00:08:06 00:09:38 12° 300° (WNW) 00:11:09 437.425
Oscar 19 11 Dec 00:11:02 00:13:36 14° 89° (E) 00:16:09 437.125/150
Gurwin Techsat 1B 11 Dec 00:18:41 00:20:26 12° 87° (E) 00:22:12 435.225
AIST 2D 11 Dec 00:22:16 00:24:13 14° 295° (WNW) 00:26:10 435.315
QB50P2 11 Dec 00:24:30 00:28:33 47° 289° (WNW) 00:32:36 145.880/145.840
FALCONSAT 3 11 Dec 00:25:41 00:27:56 16° 166° (SSE) 00:30:12 435.103
UKube-1 11 Dec 00:36:28 00:40:31 40° 70° (ENE) 00:44:35 .
DUCHIFAT 1 11 Dec 00:36:48 00:40:52 50° 288° (WNW) 00:44:54 145.980
50 SAT 11 Dec 00:37:57 00:41:07 70° 76° (ENE) 00:44:18 437.505
SO-50 11 Dec 00:39:55 00:44:34 67° 53° (NE) 00:49:16 436.795
DX 1 11 Dec 00:42:29 00:46:51 76° 75° (ENE) 00:51:15 434.975-435.025
AO-85 11 Dec 00:46:47 00:49:04 14° 326° (NW) 00:51:27 145.980
SPROUT 11 Dec 00:50:15 00:52:20 13° 270° (W) 00:54:26 437.525
MOZHAYETS 4 11 Dec 00:52:29 00:54:54 14° 61° (ENE) 00:57:19
ITUPSAT 1 11 Dec 01:00:42 01:03:00 14° 59° (ENE) 01:05:18 437.325
NANOSAT C BR1 11 Dec 01:01:11 01:04:37 25° 293° (WNW) 01:08:04 145.865
AO-91 11 Dec 01:01:15 01:04:28 30° 96° (E) 01:07:31 145.960
VELOX 1 11 Dec 01:11:50 01:14:08 14° 270° (W) 01:16:26 145.980
EO-79 11 Dec 01:14:03 01:16:50 17° 296° (WNW) 01:19:38 145.935-145.965
BUGSAT 1 11 Dec 01:34:38 01:38:30 47° 288° (WNW) 01:42:23 437.445
RS-15 11 Dec 01:34:52 01:45:19 40° 253° (WSW) 01:55:18 29.354- 29.394
POLYITAN 1 11 Dec 01:37:17 01:38:23 11° 300° (WNW) 01:39:30 437.675
Oscar 19 11 Dec 01:48:17 01:53:31 79° 286° (WNW) 01:58:43 437.125/150
Gurwin Techsat 1B 11 Dec 01:55:46 02:01:08 88° 105° (ESE) 02:06:27 435.225
AO-7 11 Dec 01:58:41 02:04:15 19° 90° (E) 02:09:46 .
CUBESAT XI-V 11 Dec 02:03:24 02:06:36 19° 63° (ENE) 02:09:50 437.345
FALCONSAT 3 11 Dec 02:03:32 02:06:22 21° 181° (S) 02:09:11 435.103
BEESAT 11 Dec 02:10:06 02:14:46 59° 72° (ENE) 02:19:28 436.000
UKube-1 11 Dec 02:13:31 02:16:41 20° 267° (W) 02:19:52 .
SO-50 11 Dec 02:21:38 02:24:31 16° 250° (WSW) 02:27:26 436.795
DX 1 11 Dec 02:22:30 02:23:33 11° 271° (W) 02:24:36 434.975-435.025
MOZHAYETS 4 11 Dec 02:26:58 02:31:29 69° 258° (WSW) 02:36:03
YUBILEINY 11 Dec 02:29:28 02:37:31 42° 86° (E) 02:45:37 435.215
ITUPSAT 1 11 Dec 02:35:24 02:40:09 81° 255° (WSW) 02:44:57 437.325
AO-91 11 Dec 02:38:23 02:40:44 17° 296° (WNW) 02:42:59 145.960
ITAMSAT 1 11 Dec 02:51:42 02:55:54 24° 94° (E) 03:00:04 435.822/435.867
PCSat 11 Dec 02:52:11 02:56:20 21° 41° (NE) 03:00:26 145.827
M-CUBED/EXP-1 PRIME 11 Dec 03:08:43 03:13:06 42° 103° (ESE) 03:17:15 437.505
KKS-1 11 Dec 03:11:57 03:15:08 19° 63° (ENE) 03:18:19 437.445
Oscar 19 11 Dec 03:30:01 03:31:58 12° 304° (NW) 03:33:54 437.125/150
Gurwin Techsat 1B 11 Dec 03:37:31 03:40:19 15° 303° (WNW) 03:43:07 435.225
CUBESAT XI-V 11 Dec 03:39:01 03:43:33 53° 260° (W) 03:48:09 437.345
FALCONSAT 3 11 Dec 03:42:45 03:44:46 14° 196° (SSW) 03:46:47 435.103
AO-7 11 Dec 03:49:40 03:58:06 87° 109° (ESE) 04:06:30 .
BEESAT 11 Dec 03:50:02 03:52:55 16° 269° (W) 03:55:49 436.000
DOVE 4 11 Dec 04:03:56 04:07:37 23° 92° (E) 04:11:06 437.250
STARS 11 Dec 04:06:19 04:10:01 27° 67° (ENE) 04:13:44 437.465
YUBILEINY 11 Dec 04:25:50 04:34:12 47° 287° (WNW) 04:42:41 435.215
ITAMSAT 1 11 Dec 04:30:38 04:35:32 45° 291° (WNW) 04:40:25 435.822/435.867
BEESAT 3 11 Dec 04:32:48 04:36:03 24° 44° (NE) 04:39:15 437.485
PCSat 11 Dec 04:34:53 04:40:20 77° 242° (WSW) 04:45:44 145.827
M-CUBED/EXP-1 PRIME 11 Dec 04:43:30 04:47:11 24° 301° (WNW) 04:50:44 437.505
KKS-1 11 Dec 04:47:02 04:51:21 47° 260° (W) 04:55:41 437.445
BEESAT 2 11 Dec 05:02:51 05:05:34 17° 39° (NE) 05:08:15 435.950
LilacSat-2 11 Dec 05:06:07 05:08:54 19° 93° (E) 05:11:39 437.200
XW-2D 11 Dec 05:25:42 05:29:06 29° 96° (E) 05:32:29 145.860 - 145.880
CUTE-I 11 Dec 05:27:03 05:31:31 27° 94° (E) 05:35:58 437.470
STRAND 1 11 Dec 05:37:06 05:41:34 31° 66° (ENE) 05:46:03 437.568
DOVE 4 11 Dec 05:41:10 05:45:26 36° 291° (WNW) 05:49:27 437.250
XW-2B 11 Dec 05:41:13 05:44:54 42° 98° (E) 05:48:34 145.730 - 145.750
STARS 11 Dec 05:42:21 05:46:15 30° 263° (W) 05:50:10 437.465
AO-7 11 Dec 05:43:32 05:49:53 25° 310° (NW) 05:56:16 .
KAITUO 1B 11 Dec 05:44:40 05:48:08 33° 97° (E) 05:51:36 145.475/437.950
FO-29 11 Dec 05:46:42 05:52:20 23° 55° (NE) 05:58:00 435.910
NUDT-PHONESAT 11 Dec 05:48:20 05:51:48 34° 97° (E) 05:55:15 437.300
AO-85 11 Dec 05:53:15 05:56:49 21° 40° (NE) 06:00:33 145.980
XW-2F 11 Dec 05:56:54 06:00:44 63° 102° (ESE) 06:04:31 145.980 - 146.000
XW-2C 11 Dec 06:08:13 06:12:05 87° 283° (WNW) 06:15:57 145.795 - 145.815
BEESAT 3 11 Dec 06:10:02 06:13:41 38° 243° (WSW) 06:17:17 437.485
PCSat 11 Dec 06:21:47 06:22:46 10° 259° (W) 06:23:44 145.827
SEEDS 11 Dec 06:30:28 06:33:58 24° 94° (E) 06:37:25 437.485
BEESAT 2 11 Dec 06:39:42 06:43:43 68° 238° (WSW) 06:47:40 435.950
LilacSat-2 11 Dec 06:39:43 06:43:15 34° 289° (WNW) 06:46:47 437.200
CUTE 1.7 + AOD 2 11 Dec 06:44:52 06:49:07 57° 100° (E) 06:53:20 437.475
HO-68 11 Dec 06:46:05 06:53:09 56° 101° (ESE) 07:00:08 435.675
CUBEBUG 2 11 Dec 06:50:51 06:54:48 38° 98° (E) 06:58:50 437.445
UWE-3 11 Dec 06:59:17 07:02:57 27° 95° (E) 07:06:41 435.000/436.395/437.385
XW-2D 11 Dec 07:00:07 07:03:06 22° 293° (WNW) 07:06:06 145.860 - 145.880
AAUSAT CUBESAT 2 11 Dec 07:01:57 07:05:18 23° 94° (E) 07:08:37 437.432
NO-84 11 Dec 07:03:21 07:05:41 20° 129° (SE) 07:08:09 435.350 FM
CUTE-I 11 Dec 07:06:41 07:11:43 43° 292° (WNW) 07:16:42 437.470
STRAND 1 11 Dec 07:16:00 07:20:40 35° 263° (W) 07:25:21 437.568
XW-2B 11 Dec 07:16:20 07:18:43 16° 295° (WNW) 07:21:06 145.730 - 145.750
KAITUO 1B 11 Dec 07:19:10 07:21:53 19° 294° (WNW) 07:24:36 145.475/437.950
NUDT-PHONESAT 11 Dec 07:22:49 07:25:23 18° 294° (WNW) 07:27:58 437.300
XW-2A 11 Dec 07:25:53 07:29:09 40° 98° (E) 07:32:24 145.665 - 145.685
FO-29 11 Dec 07:28:37 07:36:18 88° 74° (ENE) 07:44:14 435.910
TIGRISAT 11 Dec 07:29:19 07:31:00 12° 61° (ENE) 07:32:42 435.000
UNISAT 6 11 Dec 07:30:53 07:33:05 14° 62° (ENE) 07:35:18 437.425
AO-85 11 Dec 07:32:55 07:37:40 73° 238° (WSW) 07:42:47 145.980
XW-2F 11 Dec 07:33:00 07:34:19 11° 298° (WNW) 07:35:37 145.980 - 146.000
ZACube-1 11 Dec 07:33:18 07:37:15 34° 97° (E) 07:41:14 437.345
Oscar 11 11 Dec 08:00:03 08:04:07 38° 97° (E) 08:08:11 .
SEEDS 11 Dec 08:05:52 08:09:39 31° 291° (WNW) 08:13:24 437.485
AO-73 11 Dec 08:09:33 08:13:52 74° 103° (ESE) 08:18:15 145.935
CUTE 1.7 + AOD 2 11 Dec 08:21:59 08:24:28 15° 297° (WNW) 08:26:57 437.475
CUBEBUG 2 11 Dec 08:28:05 08:31:12 20° 294° (WNW) 08:34:21 437.445
HO-68 11 Dec 08:34:22 08:40:31 32° 300° (WNW) 08:46:39 435.675
UWE-3 11 Dec 08:35:42 08:39:21 28° 291° (WNW) 08:43:05 435.000/436.395/437.385
AAUSAT CUBESAT 2 11 Dec 08:37:03 08:40:47 32° 291° (WNW) 08:44:28 437.432
NO-84 11 Dec 08:39:36 08:42:40 44° 329° (NNW) 08:45:59 435.350 FM
DELFI C3 11 Dec 08:41:24 08:44:24 20° 93° (E) 08:47:22 145.870
XW-2A 11 Dec 08:59:51 09:01:29 13° 295° (WNW) 09:03:09 145.665 - 145.685
TIGRISAT 11 Dec 09:02:48 09:07:08 73° 258° (WSW) 09:11:25 435.000
UNISAT 6 11 Dec 09:05:01 09:09:19 63° 258° (WSW) 09:13:35 437.425
O/OREOS (USA 219) 11 Dec 09:05:16 09:09:52 85° 112° (ESE) 09:14:28 437.305
ZACube-1 11 Dec 09:09:54 09:13:21 24° 293° (WNW) 09:16:52 437.345
FO-29 11 Dec 09:16:49 09:22:12 20° 274° (W) 09:27:45 435.910
PRISM 11 Dec 09:20:52 09:24:57 60° 73° (ENE) 09:29:05 437.425
AIST 2D 11 Dec 09:24:00 09:26:31 19° 67° (ENE) 09:29:02 435.315
Oscar 11 11 Dec 09:36:40 09:40:02 22° 294° (WNW) 09:43:23 .
Max Valier Satellite 11 Dec 09:40:02 09:43:47 69° 103° (ESE) 09:47:29 145.860
QB50P2 11 Dec 09:44:14 09:46:44 16° 63° (ENE) 09:49:14 145.880/145.840
AO-73 11 Dec 09:47:45 09:49:32 12° 299° (WNW) 09:51:19 145.935
DUCHIFAT 1 11 Dec 09:56:06 09:58:20 14° 62° (ENE) 10:00:35 145.980
DELFI C3 11 Dec 10:15:39 10:19:12 32° 290° (WNW) 10:22:42 145.870
EO-88 11 Dec 10:17:27 10:21:05 59° 285° (WNW) 10:24:41 145.990 - 145.960
NO-84 11 Dec 10:18:25 10:20:40 16° 350° (N) 10:23:02 435.350 FM
NANOSAT C BR1 11 Dec 10:18:42 10:22:15 27° 68° (ENE) 10:25:47 145.865
EO-79 11 Dec 10:30:52 10:34:49 41° 71° (ENE) 10:38:46 145.935-145.965
O/OREOS (USA 219) 11 Dec 10:47:37 10:49:55 14° 312° (NW) 10:52:15 437.305
BUGSAT 1 11 Dec 10:52:12 10:54:17 14° 62° (ENE) 10:56:21 437.445
POLYITAN 1 11 Dec 10:52:31 10:56:41 72° 76° (ENE) 11:00:52 437.675
AIST 2D 11 Dec 10:56:27 10:59:29 28° 264° (W) 11:02:34 435.315
PRISM 11 Dec 10:58:49 11:00:36 12° 270° (W) 11:02:23 437.425
LO-87 11 Dec 11:00:28 11:03:56 53° 100° (E) 11:07:23 145.935 - 145.965
ESTCUBE 1 11 Dec 11:07:04 11:11:28 46° 99° (E) 11:15:50 437.505/2401.250
Max Valier Satellite 11 Dec 11:16:58 11:17:01 10° 298° (WNW) 11:17:04 145.860
QB50P2 11 Dec 11:17:59 11:22:06 53° 260° (W) 11:26:13 145.880/145.840
Oscar 19 11 Dec 11:28:43 11:32:48 25° 63° (ENE) 11:36:54 437.125/150
DUCHIFAT 1 11 Dec 11:29:25 11:33:31 58° 259° (WSW) 11:37:39 145.980
Gurwin Techsat 1B 11 Dec 11:40:02 11:44:10 24° 63° (ENE) 11:48:20 435.225
NANOSAT C BR1 11 Dec 11:54:19 11:57:52 27° 264° (W) 12:01:28 145.865
NO-84 11 Dec 11:56:37 11:59:04 17° 12° (NNE) 12:01:38 435.350 FM
AO-91 11 Dec 11:58:17 12:02:58 40° 71° (ENE) 12:07:16 145.960
nSIGHT-1 11 Dec 12:03:39 12:06:19 24° 137° (SE) 12:09:01 .
EO-79 11 Dec 12:07:50 12:10:44 18° 267° (W) 12:13:39 145.935-145.965
BUGSAT 1 11 Dec 12:25:11 12:29:11 57° 259° (W) 12:33:10 437.445
ISS 11 Dec 12:31:21 12:34:22 34° 140° (SE) 12:37:24 437.550
DX 1 11 Dec 12:31:21 12:32:45 11° 89° (E) 12:34:09 434.975-435.025
SPROUT 11 Dec 12:31:25 12:35:40 89° 284° (WNW) 12:39:55 437.525
POLYITAN 1 11 Dec 12:32:10 12:32:56 10° 271° (W) 12:33:42 437.675
LO-87 11 Dec 12:35:50 12:36:52 11° 297° (WNW) 12:37:55 145.935 - 145.965
YUBILEINY 11 Dec 12:37:45 12:44:23 23° 61° (ENE) 12:50:57 435.215
ESTCUBE 1 11 Dec 12:44:38 12:47:56 20° 296° (WNW) 12:51:12 437.505/2401.250
VELOX 1 11 Dec 12:57:27 13:01:55 82° 283° (WNW) 13:06:18 145.980
AO-7 11 Dec 12:59:01 13:06:11 34° 55° (NE) 13:13:21 .
Oscar 19 11 Dec 13:06:55 13:11:50 46° 261° (W) 13:16:48 437.125/150
Gurwin Techsat 1B 11 Dec 13:18:37 13:23:47 51° 260° (W) 13:28:59 435.225
50 SAT 11 Dec 13:24:32 13:27:34 42° 99° (E) 13:30:35 437.505
NO-84 11 Dec 13:33:27 13:37:05 43° 31° (NNE) 13:40:57 435.350 FM
AO-91 11 Dec 13:35:20 13:39:27 25° 265° (W) 13:43:19 145.960
nSIGHT-1 11 Dec 13:39:13 13:42:22 49° 335° (NNW) 13:45:32 .
RS-15 11 Dec 13:47:06 13:57:36 35° 105° (ESE) 14:08:02 29.354- 29.394
M-CUBED/EXP-1 PRIME 11 Dec 13:54:47 13:58:59 63° 68° (ENE) 14:03:28 437.505
UKube-1 11 Dec 13:57:20 14:01:36 59° 101° (E) 14:05:51 .
DX 1 11 Dec 14:05:04 14:09:25 71° 286° (WNW) 14:13:44 434.975-435.025
ISS 11 Dec 14:07:40 14:10:49 40° 337° (NNW) 14:13:58 437.550
BEESAT 11 Dec 14:10:20 14:12:32 13° 89° (E) 14:14:44 436.000
ITAMSAT 1 11 Dec 14:10:48 14:15:44 45° 69° (ENE) 14:20:40 435.822/435.867
MOZHAYETS 4 11 Dec 14:20:43 14:24:30 24° 94° (E) 14:28:16
YUBILEINY 11 Dec 14:33:30 14:42:24 86° 264° (W) 14:51:11 435.215
ITUPSAT 1 11 Dec 14:34:51 14:38:37 23° 94° (E) 14:42:21 437.325
AO-7 11 Dec 14:50:15 14:58:27 64° 255° (WSW) 15:06:45 .
SO-50 11 Dec 14:57:52 15:00:05 14° 109° (ESE) 15:02:20 436.795
50 SAT 11 Dec 14:58:26 14:59:08 11° 296° (WNW) 14:59:50 437.505
DOVE 4 11 Dec 15:09:32 15:14:12 32° 67° (ENE) 15:18:46 437.250
NO-84 11 Dec 15:10:46 15:14:20 33° 227° (SW) 15:18:04 435.350 FM
nSIGHT-1 11 Dec 15:16:30 15:19:06 22° 354° (N) 15:21:41 .
M-CUBED/EXP-1 PRIME 11 Dec 15:31:33 15:33:49 14° 266° (W) 15:36:08 437.505
CUBESAT XI-V 11 Dec 15:33:56 15:38:14 34° 96° (E) 15:42:29 437.345
UKube-1 11 Dec 15:34:41 15:37:09 15° 299° (WNW) 15:39:36 .
HO-68 11 Dec 15:35:17 15:36:49 11° 44° (NE) 15:38:22 435.675
ISS 11 Dec 15:45:15 15:47:53 21° 357° (N) 15:50:31 437.550
BEESAT 11 Dec 15:46:03 15:50:48 72° 287° (WNW) 15:55:33 436.000
LilacSat-2 11 Dec 15:50:35 15:52:12 12° 63° (ENE) 15:53:49 437.200
ITAMSAT 1 11 Dec 15:51:07 15:55:21 25° 266° (W) 15:59:37 435.822/435.867
RS-15 11 Dec 15:56:45 16:09:07 77° 307° (NW) 16:21:23 29.354- 29.394
MOZHAYETS 4 11 Dec 15:57:29 16:01:43 36° 291° (WNW) 16:05:56
XW-2D 11 Dec 16:08:44 16:11:23 18° 66° (ENE) 16:14:03 145.860 - 145.880
ITUPSAT 1 11 Dec 16:12:06 16:16:35 42° 291° (WNW) 16:21:04 437.325
XW-2B 11 Dec 16:23:53 16:27:02 25° 69° (ENE) 16:30:13 145.730 - 145.750
KAITUO 1B 11 Dec 16:26:14 16:29:00 20° 67° (ENE) 16:31:48 145.475/437.950
NUDT-PHONESAT 11 Dec 16:29:01 16:31:44 20° 67° (ENE) 16:34:30 437.300
YUBILEINY 11 Dec 16:32:24 16:37:48 18° 285° (WNW) 16:43:12 435.215
SO-50 11 Dec 16:35:29 16:39:57 72° 307° (NW) 16:44:28 436.795
KKS-1 11 Dec 16:36:29 16:40:18 28° 96° (E) 16:44:06 437.445
XW-2F 11 Dec 16:38:50 16:42:17 35° 71° (ENE) 16:45:46 145.980 - 146.000
DOVE 4 11 Dec 16:46:55 16:51:45 36° 264° (W) 16:56:32 437.250
CUTE-I 11 Dec 16:50:01 16:55:12 51° 70° (ENE) 17:00:23 437.470
AO-7 11 Dec 16:50:23 16:52:51 11° 275° (W) 16:55:19 .
XW-2C 11 Dec 16:50:24 16:54:04 53° 74° (ENE) 16:57:48 145.795 - 145.815
nSIGHT-1 11 Dec 16:53:11 16:56:00 27° 14° (NNE) 16:58:49 .
CUBESAT XI-V 11 Dec 17:11:28 17:15:28 28° 293° (WNW) 17:19:28 437.345
HO-68 11 Dec 17:16:02 17:22:52 49° 65° (ENE) 17:29:42 435.675
ISS 11 Dec 17:22:02 17:25:03 31° 18° (NNE) 17:28:02 437.550
LilacSat-2 11 Dec 17:22:14 17:25:59 56° 260° (W) 17:29:46 437.200
SEEDS 11 Dec 17:23:39 17:26:49 21° 66° (ENE) 17:30:00 437.485
STARS 11 Dec 17:29:27 17:33:34 40° 99° (E) 17:37:39 437.465
O/OREOS (USA 219) 11 Dec 17:35:07 17:38:51 25° 55° (NE) 17:42:32 437.305
CUTE 1.7 + AOD 2 11 Dec 17:38:32 17:42:36 47° 72° (ENE) 17:46:43 437.475
XW-2D 11 Dec 17:41:51 17:45:18 34° 263° (W) 17:48:48 145.860 - 145.880
CUBEBUG 2 11 Dec 17:50:18 17:54:13 37° 71° (ENE) 17:58:05 437.445
